ON6OO-13 Weather Reports


Display with metric or nautical units.
time (UTC)temp
F
wind
direction
speed
MPH
gust
MPH
rain 1hr
in
rain 24hr
in
rain mn
in
humidity
%
barometer
mb
20260506194212 50 4 2.0 4.0 0.00 0.00 0.00 85 1011.8
20260506192701 50 345 0.0 2.0 0.00 0.00 0.00 85 1011.5
20260506191149 50 7 5.0 7.0 0.00 0.00 0.00 85 1011.5
20260506185636 50 15 0.0 2.0 0.00 0.00 0.00 85 1011.1
20260506184125 51 129 0.0 2.0 0.00 0.00 0.00 83 1011.1
20260506182612 51 355 6.0 10.0 0.00 0.00 0.00 80 1010.8
20260506181100 52 354 8.0 10.0 0.00 0.00 0.00 78 1010.8
20260506175548 52 354 10.0 12.0 0.00 0.00 0.00 76 1010.4
20260506174036 52 32 6.0 10.0 0.00 0.00 0.00 74 1010.1
20260506172524 52 4 10.0 12.0 0.00 0.00 0.00 73 1010.1
20260506171012 53 37 3.0 4.0 0.00 0.00 0.00 73 1010.1
20260506165500 53 19 10.0 12.0 0.00 0.00 0.00 72 1009.8
20260506163948 54 10 12.0 17.0 0.00 0.00 0.00 71 1009.4
20260506162436 55 15 9.0 12.0 0.00 0.00 0.00 67 1009.4
20260506160924 56 338 13.0 17.0 0.00 0.00 0.00 63 1009.4
20260506155412 56 33 8.0 14.0 0.00 0.00 0.00 64 1009.1
20260506153900 56 267 8.0 10.0 0.00 0.00 0.00 64 1009.1
20260506152348 56 334 10.0 12.0 0.00 0.00 0.00 65 1009.1
20260506150836 56 331 11.0 14.0 0.00 0.00 0.00 65 1009.1
20260506145324 57 20 6.0 7.0 0.00 0.00 0.00 67 1009.1
20260506143812 57 21 7.0 10.0 0.00 0.00 0.00 66 1009.1
20260506142300 57 315 11.0 14.0 0.00 0.00 0.00 65 1008.8
20260506140748 57 14 9.0 14.0 0.00 0.00 0.00 61 1008.8
20260506135236 57 25 9.0 12.0 0.00 0.00 0.00 62 1008.8
20260506133724 57 342 7.0 10.0 0.00 0.00 0.00 60 1008.8
20260506132212 57 319 4.0 10.0 0.00 0.00 0.00 64 1009.1
20260506130700 57 345 10.0 12.0 0.00 0.00 0.00 66 1008.8
20260506125148 57 10 9.0 12.0 0.00 0.00 0.00 65 1009.1
20260506123636 56 5 7.0 10.0 0.00 0.00 0.00 66 1008.8
20260506122124 56 348 15.0 20.0 0.00 0.00 0.00 67 1008.8
20260506120612 56 319 11.0 14.0 0.00 0.00 0.00 70 1008.8
20260506115100 56 2 9.0 12.0 0.00 0.00 0.00 70 1008.4
20260506113548 55 22 8.0 12.0 0.00 0.00 0.00 71 1008.8
20260506112036 55 330 3.0 4.0 0.00 0.00 0.00 75 1008.8
20260506110524 54 332 10.0 12.0 0.00 0.00 0.00 78 1008.8
20260506105012 54 319 6.0 10.0 0.00 0.00 0.00 83 1009.1
20260506103500 54 332 2.0 4.0 0.00 0.00 0.00 84 1008.8
20260506101948 54 24 5.0 7.0 0.00 0.00 0.00 85 1008.8
20260506100436 53 359 4.0 7.0 0.00 0.00 0.00 87 1008.8
20260506094924 52 327 1.0 7.0 0.00 0.00 0.00 88 1008.8
20260506093412 51 5 6.0 10.0 0.00 0.00 0.00 88 1009.1
20260506091900 50 344 4.0 4.0 0.00 0.00 0.00 90 1008.8
20260506090348 50 310 6.0 7.0 0.00 0.00 0.00 91 1008.8
20260506084836 49 331 6.0 10.0 0.00 0.00 0.00 93 1008.8
20260506083324 48 355 7.0 10.0 0.00 0.00 0.00 95 1008.8
20260506081812 48 348 5.0 10.0 0.00 0.00 0.00 97 1008.8
20260506080300 48 335 6.0 10.0 0.00 0.00 0.00 97 1008.4
20260506073236 47 345 3.0 10.0 0.00 0.00 0.00 98 1008.8
20260506071724 47 344 5.0 7.0 0.00 0.00 0.00 98 1008.8
20260506070212 47 286 3.0 4.0 0.00 0.00 0.00 98 1008.8
20260506061636 47 346 7.0 10.0 0.00 0.00 0.00 98 1008.1
20260506060123 47 346 8.0 12.0 0.00 0.00 0.00 98 1008.1
20260506044523 47 349 3.0 4.0 0.00 0.00 0.00 97 1008.1
20260506043012 47 333 7.0 10.0 0.00 0.00 0.00 97 1008.1
20260506041500 47 39 6.0 10.0 0.00 0.00 0.00 97 1008.1
20260506035947 47 349 5.0 7.0 0.00 0.00 0.00 97 1008.4
20260506034435 47 359 6.0 10.0 0.00 0.00 0.00 97 1007.7
20260506032923 47 352 6.0 7.0 0.00 0.00 0.00 97 1007.7
20260506031411 47 349 4.0 7.0 0.00 0.00 0.00 96 1008.1
20260506025859 47 324 2.0 4.0 0.00 0.00 0.00 96 1008.4
20260506024347 47 342 3.0 4.0 0.00 0.00 0.00 95 1008.4
20260506022835 47 327 10.0 12.0 0.00 0.00 0.00 95 1008.4
20260506021323 47 337 6.0 7.0 0.00 0.00 0.00 94 1008.4
20260506015811 47 348 5.0 7.0 0.00 0.00 0.00 94 1008.4
20260506014259 47 328 5.0 7.0 0.00 0.00 0.00 94 1008.4
20260506012747 47 351 6.0 7.0 0.00 0.00 0.00 94 1008.4
20260506011236 48 340 2.0 4.0 0.00 0.00 0.00 94 1008.4
20260506005723 48 331 4.0 7.0 0.00 0.00 0.00 95 1008.4
20260506004211 48 318 1.0 2.0 0.00 0.00 0.00 95 1008.8
20260506002659 48 338 1.0 2.0 0.00 0.00 0.00 96 1008.8
20260506001147 48 328 3.0 4.0 0.00 0.00 0.00 95 1008.8
20260505235635 48 357 2.0 2.0 0.00 0.00 0.00 95 1009.1
20260505234123 48 353 5.0 10.0 0.00 0.00 0.00 96 1008.8
20260505232611 49 12 5.0 7.0 0.00 0.00 0.00 96 1008.8
20260505231059 49 322 2.0 4.0 0.00 0.00 0.00 96 1009.1
20260505225547 49 310 3.0 4.0 0.00 0.00 0.00 96 1009.1
20260505224035 49 341 1.0 2.0 0.00 0.00 0.00 96 1009.1
20260505222523 50 15 0.0 2.0 0.00 0.00 0.00 96 1009.1
20260505221011 50 12 0.0 0.0 0.00 0.00 0.00 96 1009.1
20260505215459 50 5 0.0 0.0 0.00 0.00 0.00 96 1009.4
20260505213947 50 354 0.0 0.0 0.00 0.00 0.00 95 1009.4
20260505212435 50 341 0.0 0.0 0.00 0.00 0.00 95 1009.1
20260505210923 51 351 0.0 0.0 0.00 0.00 0.00 94 1009.4
20260505205411 51 7 0.0 0.0 0.00 0.00 0.00 93 1009.4
20260505203859 51 28 0.0 0.0 0.00 0.00 0.00 92 1009.4
20260505202347 51 349 0.0 0.0 0.00 0.00 0.00 91 1009.4
20260505200835 51 344 0.0 0.0 0.00 0.00 0.00 91 1009.4
20260505195323 51 339 0.0 0.0 0.00 0.00 0.00 91 1009.4